START_TIME,STEP,MOV.,M15,t_acc.,M20,t_acc.
1979-03-03 13:16:09.390 ,0,0,0.,24.0,0.,24.0
1979-03-03 13:16:33.390 ,2,1,0.,24.0,0.,24.0
1979-03-03 13:16:57.390 ,1,1,0.,24.0,0.,24.0
1979-03-03 13:17:21.390 ,0,1,0.,24.0,0.,24.0
1979-03-03 13:17:45.390 ,0,1,0.,24.0,0.,24.0
1979-03-03 13:18:09.390 ,1,1,0.,24.0,0.,24.0
1979-03-03 13:18:33.390 ,2,1,0.,24.0,0.,24.0
1979-03-03 13:18:57.390 ,3,1,0.,24.0,0.,24.0
1979-03-03 13:19:21.390 ,4,1,0.,24.0,0.,24.0
1979-03-03 13:19:45.390 ,5,1,0.,24.0,0.,24.0
1979-03-03 13:20:09.390 ,6,1,0.,24.0,0.,24.0
1979-03-03 13:20:33.390 ,7,1,0.,24.0,0.,24.0
1979-03-03 13:20:57.390 ,7,1,0.,24.0,0.,24.0
1979-03-03 13:21:21.390 ,6,1,0.,24.0,0.,24.0
1979-03-03 13:21:45.390 ,5,1,0.,24.0,0.,24.0
1979-03-03 13:22:09.390 ,5,0,0.,24.0,0.,24.0
1979-03-03 13:22:33.390 ,0,0,,0,,0
1979-03-03 13:22:57.390 ,0,0,,0,,0
1979-03-03 14:39:45.990 ,0,0,0.,24.0,0.,24.0
1979-03-03 14:40:09.390 ,1,1,0.,24.0,0.,24.0
1979-03-03 14:40:33.390 ,0,1,0.,24.0,0.,24.0
1979-03-03 14:40:57.390 ,0,1,0.,24.0,0.,24.0
1979-03-03 14:41:21.390 ,1,1,0.,24.0,0.,24.0
1979-03-03 14:41:45.390 ,2,1,0.,24.0,0.,24.0
1979-03-03 14:42:09.390 ,3,1,1.,24.0,0.,24.0
1979-03-03 14:42:33.390 ,4,1,0.,24.0,0.,24.0
1979-03-03 14:42:57.390 ,5,1,0.,24.0,0.,24.0
1979-03-03 14:43:21.390 ,6,1,1.,24.0,0.,24.0
1979-03-03 14:43:45.390 ,7,1,1.,24.0,0.,24.0
1979-03-03 14:44:09.390 ,7,1,1.,24.0,0.,24.0
1979-03-03 14:44:33.390 ,6,1,0.,24.0,0.,24.0
1979-03-03 14:44:57.390 ,5,1,0.,24.0,0.,24.0
1979-03-03 14:45:21.390 ,4,1,0.,24.0,0.,24.0
1979-03-03 14:45:45.390 ,3,1,0.,24.0,0.,24.0
1979-03-03 14:46:09.390 ,2,1,0.,24.0,0.,24.0
1979-03-03 14:46:33.390 ,1,1,0.,24.0,0.,24.0
1979-03-03 14:46:57.390 ,0,1,0.,24.0,0.,24.0
1979-03-03 14:47:21.390 ,0,1,0.,24.0,0.,24.0
1979-03-03 14:47:45.390 ,1,1,0.,24.0,0.,24.0
1979-03-03 14:48:09.390 ,2,1,0.,24.0,0.,24.0
1979-03-03 14:48:33.390 ,3,1,0.,24.0,0.,24.0
1979-03-03 14:48:57.390 ,4,1,0.,24.0,0.,24.0
1979-03-03 14:49:21.390 ,5,1,1.,24.0,0.,24.0
1979-03-03 14:49:45.390 ,6,1,0.,24.0,0.,24.0
1979-03-03 14:50:09.390 ,7,1,0.,24.0,0.,24.0
1979-03-03 14:50:33.390 ,7,1,0.,24.0,0.,24.0
1979-03-03 14:50:57.390 ,6,1,0.,24.0,0.,24.0
1979-03-03 14:51:21.390 ,5,1,1.,24.0,0.,24.0
1979-03-03 14:51:45.390 ,4,1,0.,24.0,0.,24.0
1979-03-03 14:52:09.390 ,3,1,0.,24.0,0.,24.0
1979-03-03 14:52:33.390 ,2,1,1.,24.0,0.,24.0
1979-03-03 14:52:57.390 ,1,1,0.,24.0,0.,24.0
1979-03-03 14:53:21.390 ,0,1,1.,24.0,0.,24.0
1979-03-03 14:53:45.390 ,0,1,0.,24.0,0.,24.0
1979-03-03 14:54:09.390 ,1,1,0.,24.0,0.,24.0
1979-03-03 14:54:33.390 ,2,1,0.,24.0,0.,24.0
1979-03-03 14:54:57.390 ,3,1,0.,24.0,0.,24.0
1979-03-03 14:55:21.390 ,4,1,1.,24.0,0.,24.0
1979-03-03 14:55:45.390 ,5,1,1.,24.0,0.,24.0
1979-03-03 14:56:09.390 ,6,1,0.,24.0,0.,24.0
1979-03-03 14:56:33.390 ,7,1,0.,24.0,0.,24.0
1979-03-03 14:56:57.390 ,7,1,0.,24.0,0.,24.0
1979-03-03 14:57:21.390 ,6,1,0.,24.0,0.,24.0
1979-03-03 14:57:45.390 ,5,1,0.,24.0,0.,24.0
1979-03-03 14:58:09.390 ,4,1,0.,24.0,0.,24.0
1979-03-03 14:58:33.390 ,3,1,0.,24.0,0.,24.0
1979-03-03 14:58:57.390 ,2,1,0.,24.0,0.,24.0
1979-03-03 14:59:21.390 ,1,1,0.,24.0,0.,24.0
1979-03-03 14:59:45.390 ,0,1,0.,24.0,0.,24.0
1979-03-03 15:00:09.390 ,0,1,0.,24.0,0.,24.0
